SES-7 (PROTOSTAR 2)     
1 34941U 09027A   19259.87280329 -.00000351  00000-0  00000-0 0  9994
2 34941   0.0370 105.7490 0001873 116.8418 195.4059  1.00269920 37919
BREEZE-M R/B            
1 34942U 09027B   19259.82266097 -.00000092  00000-0  00000-0 0  9998
2 34942   9.8197  37.2676 3451689  48.9084 114.1136  1.57276970 59373